Location: Gleizolles
(44.4833°N, 6.7667°E)
Time: 01:57:14
(UTC+00:00)

X-37B - Pass Details

Date: 06 December 2021
Orbit: 334 x 337 km, 45.0° (Epoch: 11 January)

Event Time Altitude Azimuth Distance (km) Brightness Sun altitude
Rises 18:27:31 0° 240° (WSW) 2,096 5.3 -26.7°
Reaches altitude 10° 18:29:33 10° 234° (SW) 1,262 3.9 -27.0°
Enters shadow 18:29:38 11° 233° (SW) 1,227 3.8 -27.0°
